^^
NorthLandsweather Station Historical Data
Daily Summary for February 12, 2019 Units:  Metric    English   Both
Daily Weekly Monthly Yearly Custom
  High: Low: Average:
Temperature: -4.6 °C -7.5 °C -6.1 °C
Dew Point: -6.2 °C -9.3 °C -7.7 °C
Humidity: 91% 86% 89%
Wind Speed: 14.8km/h 0km/h 4.5km/h
Wind Gust: 7.4km/h - -
Wind- - SE
Pressure: 1019.5 hPa 1006.3 hPa -
Precipitation: 12.19 mm    
Historical Graphs
 
 
Tabular Data for February 12, 2019
Time Temperature Dew Point Pressure Wind Wind Speed Wind Gust Humidity Rainfall Rate (Hourly) solar
00:04 -5.7 °C -7.1 °C 1019.2 hPa ENE 3.7 km/h   90% 0 mm 143.10 W/m2
00:09 -5.7 °C -7.1 °C 1019.2 hPa Calm     90% 0 mm 143.10 W/m2
00:14 -5.7 °C -7.1 °C 1019.2 hPa Calm     90% 0 mm 143.10 W/m2
00:19 -5.8 °C -7.2 °C 1019.2 hPa Calm     90% 0 mm 143.10 W/m2
00:24 -5.8 °C -7.2 °C 1019.2 hPa NE 5.6 km/h 2.1 km/h 90% 0 mm 143.10 W/m2
00:29 -5.8 °C -7.2 °C 1019.2 hPa ENE 3.7 km/h 2.9 km/h 90% 0 mm 143.10 W/m2
00:34 -5.8 °C -7.2 °C 1019.5 hPa ENE 1.9 km/h 0.8 km/h 90% 0 mm 143.10 W/m2
00:39 -5.8 °C -7.2 °C 1019.5 hPa NE 5.6 km/h 2.9 km/h 90% 0 mm 143.10 W/m2
00:44 -5.8 °C -7.2 °C 1019.5 hPa NE 1.9 km/h 0.5 km/h 90% 0 mm 143.10 W/m2
00:49 -5.8 °C -7.2 °C 1019.2 hPa ENE 3.7 km/h 1.8 km/h 90% 0 mm 143.10 W/m2
00:54 -5.8 °C -7.2 °C 1019.5 hPa ENE 1.9 km/h   90% 0 mm 143.10 W/m2
00:59 -5.8 °C -7.2 °C 1019.2 hPa Calm     90% 0 mm 143.10 W/m2
01:04 -5.8 °C -7.2 °C 1019.2 hPa Calm     90% 0 mm 143.10 W/m2
01:09 -5.8 °C -7.2 °C 1019.2 hPa Calm     90% 0 mm 143.10 W/m2
01:14 -5.8 °C -7.2 °C 1018.8 hPa ENE 3.7 km/h 0.5 km/h 90% 0 mm 143.10 W/m2
01:19 -5.8 °C -7.2 °C 1018.8 hPa ENE 1.9 km/h 1.3 km/h 90% 0 mm 143.10 W/m2
01:24 -5.8 °C -7.1 °C 1018.8 hPa ENE 3.7 km/h 0.3 km/h 91% 0 mm 143.10 W/m2
01:29 -5.9 °C -7.1 °C 1018.5 hPa ENE 5.6 km/h 1.8 km/h 91% 0 mm 143.10 W/m2
01:34 -5.9 °C -7.1 °C 1018.5 hPa Calm     91% 0 mm 143.10 W/m2
01:39 -5.9 °C -7.1 °C 1018.5 hPa Calm     91% 0 mm 143.10 W/m2
01:44 -5.9 °C -7.2 °C 1018.5 hPa Calm     91% 0 mm 143.10 W/m2
01:49 -5.9 °C -7.2 °C 1018.5 hPa Calm     91% 0 mm 143.10 W/m2
01:54 -5.9 °C -7.2 °C 1018.2 hPa Calm     91% 0 mm 143.10 W/m2
01:59 -5.9 °C -7.1 °C 1018.2 hPa Calm     91% 0 mm 143.10 W/m2
02:04 -5.9 °C -7.1 °C 1018.2 hPa Calm     91% 0 mm 143.10 W/m2
02:09 -5.9 °C -7.1 °C 1017.8 hPa Calm     91% 0 mm 143.10 W/m2
02:14 -5.9 °C -7.1 °C 1017.8 hPa Calm     91% 0.25 mm 143.10 W/m2
02:19 -5.9 °C -7.1 °C 1017.5 hPa Calm     91% 0.25 mm 143.10 W/m2
02:24 -5.9 °C -7.1 °C 1017.5 hPa North 3.7 km/h 2.3 km/h 91% 0.25 mm 143.10 W/m2
02:29 -5.9 °C -7.1 °C 1017.5 hPa North 1.9 km/h   91% 0.25 mm 143.10 W/m2
02:34 -5.9 °C -7.2 °C 1017.2 hPa NE 1.9 km/h   91% 0.25 mm 143.10 W/m2
02:39 -5.9 °C -7.2 °C 1017.2 hPa NE 3.7 km/h   91% 0.25 mm 143.10 W/m2
02:44 -5.9 °C -7.2 °C 1016.8 hPa Calm     91% 0.25 mm 143.10 W/m2
02:49 -5.9 °C -7.2 °C 1016.8 hPa NE 3.7 km/h 1.9 km/h 91% 0.25 mm 143.10 W/m2
02:54 -5.9 °C -7.2 °C 1016.5 hPa North 1.9 km/h 2.9 km/h 91% 0.51 mm 143.10 W/m2
02:59 -5.9 °C -7.2 °C 1016.5 hPa North 1.9 km/h 0.3 km/h 91% 0.51 mm 143.10 W/m2
03:04 -5.9 °C -7.3 °C 1016.5 hPa North 3.2 km/h 1.1 km/h 90% 0.51 mm 143.10 W/m2
03:09 -6 °C -7.2 °C 1016.5 hPa NNW 5.6 km/h   91% 0.51 mm 143.10 W/m2
03:14 -6 °C -7.2 °C 1016.5 hPa Calm     91% 0.25 mm 143.10 W/m2
03:19 -6 °C -7.2 °C 1016.5 hPa NNW 3.7 km/h 1.6 km/h 91% 0.25 mm 143.10 W/m2
03:24 -6.1 °C -7.3 °C 1016.1 hPa NE 1.9 km/h   91% 0.25 mm 143.10 W/m2
03:29 -6.1 °C -7.4 °C 1015.8 hPa NE 3.7 km/h 1.8 km/h 90% 0.25 mm 143.10 W/m2
03:34 -6.1 °C -7.5 °C 1015.8 hPa NNE 3.7 km/h 2.1 km/h 90% 0.51 mm 143.10 W/m2
03:39 -6.1 °C -7.5 °C 1015.8 hPa ENE 5.6 km/h 1.6 km/h 90% 0.51 mm 143.10 W/m2
03:44 -6.1 °C -7.3 °C 1015.5 hPa NNE 5.6 km/h 1.6 km/h 91% 0.51 mm 143.10 W/m2
03:49 -6.1 °C -7.3 °C 1015.5 hPa ENE 3.7 km/h 1.1 km/h 91% 0.51 mm 143.10 W/m2
03:54 -6.1 °C -7.5 °C 1015.1 hPa ENE 3.7 km/h 1.1 km/h 90% 0.25 mm 143.10 W/m2
03:59 -6.2 °C -7.4 °C 1015.1 hPa ENE 3.7 km/h 1 km/h 91% 0.25 mm 143.10 W/m2
04:04 -6.2 °C -7.4 °C 1015.1 hPa NE 1.9 km/h 0.2 km/h 91% 0.25 mm 143.10 W/m2
04:09 -6.2 °C -7.4 °C 1015.1 hPa NE 1.9 km/h 1.3 km/h 91% 0.25 mm 143.10 W/m2
04:14 -6.2 °C -7.4 °C 1015.1 hPa NNE 3.7 km/h 0.8 km/h 91% 0.51 mm 143.10 W/m2
04:19 -6.2 °C -7.4 °C 1014.8 hPa NNE 1.9 km/h 1 km/h 91% 0.51 mm 143.10 W/m2
04:24 -6.2 °C -7.4 °C 1014.8 hPa NNE 1.9 km/h 1.3 km/h 91% 0.51 mm 143.10 W/m2
04:29 -6.2 °C -7.4 °C 1014.8 hPa NNE 5.6 km/h   91% 0.51 mm 143.10 W/m2
04:34 -6.2 °C -7.4 °C 1014.8 hPa NNE 3.7 km/h 1.9 km/h 91% 0.25 mm 143.10 W/m2
04:39 -6.2 °C -7.4 °C 1014.8 hPa NNE 3.7 km/h 0.6 km/h 91% 0.25 mm 143.10 W/m2
04:44 -6.2 °C -7.4 °C 1014.8 hPa NNE 3.7 km/h 0.2 km/h 91% 0.51 mm 143.10 W/m2
04:49 -6.1 °C -7.3 °C 1014.8 hPa Calm   0.3 km/h 91% 0.51 mm 143.10 W/m2
04:54 -6.1 °C -7.3 °C 1014.8 hPa North 3.7 km/h 2.3 km/h 91% 0.51 mm 143.10 W/m2
04:59 -6.1 °C -7.4 °C 1014.8 hPa NNE 3.7 km/h 0.6 km/h 90% 0.76 mm 143.10 W/m2
05:04 -6.1 °C -7.4 °C 1014.4 hPa North 5.6 km/h 0.5 km/h 90% 0.76 mm 143.10 W/m2
05:09 -6.1 °C -7.4 °C 1014.4 hPa NNE 1.9 km/h 1.9 km/h 90% 0.76 mm 143.10 W/m2
05:14 -6 °C -7.4 °C 1014.4 hPa Calm     90% 0.76 mm 143.10 W/m2
05:19 -6.1 °C -7.4 °C 1014.1 hPa Calm     90% 0.76 mm 143.10 W/m2
05:24 -6 °C -7.4 °C 1014.1 hPa Calm     90% 0.76 mm 143.10 W/m2
05:29 -6 °C -7.4 °C 1014.1 hPa Calm     90% 0.76 mm 143.10 W/m2
05:34 -6.1 °C -7.4 °C 1014.1 hPa NE 3.7 km/h 1.3 km/h 90% 1.02 mm 143.10 W/m2
05:39 -6.1 °C -7.4 °C 1014.1 hPa North 3.7 km/h   90% 1.02 mm 143.10 W/m2
05:44 -6.1 °C -7.6 °C 1014.1 hPa North 9.3 km/h 0.2 km/h 89% 0.76 mm 143.10 W/m2
05:49 -6.2 °C -7.7 °C 1014.1 hPa Calm     89% 1.02 mm 143.10 W/m2
05:54 -6.2 °C -7.6 °C 1013.8 hPa NNE 3.7 km/h   90% 1.02 mm 143.10 W/m2
05:59 -6.1 °C -7.5 °C 1013.8 hPa NNE 3.7 km/h 1.1 km/h 90% 1.02 mm 143.10 W/m2
06:04 -6.1 °C -7.6 °C 1013.8 hPa North 3.7 km/h 0.6 km/h 89% 1.02 mm 143.10 W/m2
06:09 -6.3 °C -7.8 °C 1013.8 hPa Calm     89% 1.02 mm 143.10 W/m2
06:14 -6.4 °C -7.9 °C 1013.4 hPa NNE 3.7 km/h 0.2 km/h 89% 1.02 mm 143.10 W/m2
06:19 -6.5 °C -8 °C 1013.4 hPa NNE 8 km/h 2.1 km/h 89% 1.02 mm 143.10 W/m2
06:24 -6.6 °C -8.1 °C 1013.4 hPa NNE 3.7 km/h 2.1 km/h 89% 1.27 mm 143.10 W/m2
06:29 -6.7 °C -8.2 °C 1013.4 hPa NW 7.4 km/h 1.4 km/h 89% 1.27 mm 143.10 W/m2
06:34 -6.8 °C -8.3 °C 1013.1 hPa NE 3.7 km/h 1.6 km/h 89% 1.27 mm 143.10 W/m2
06:39 -6.8 °C -8.3 °C 1013.1 hPa North 4.8 km/h 5.1 km/h 89% 1.27 mm 143.10 W/m2
06:44 -6.8 °C -8.2 °C 1013.1 hPa NNE 3.7 km/h 0.8 km/h 90% 1.52 mm 143.10 W/m2
06:49 -6.8 °C -8.2 °C 1013.1 hPa Calm     90% 1.27 mm 143.10 W/m2
06:54 -6.8 °C -8.2 °C 1012.8 hPa North 8 km/h 2.7 km/h 90% 1.27 mm 143.10 W/m2
06:59 -6.8 °C -8.2 °C 1012.8 hPa NE 3.7 km/h   90% 1.27 mm 143.10 W/m2
07:04 -6.8 °C -8.2 °C 1012.8 hPa North 6.4 km/h 2.7 km/h 90% 1.27 mm 143.10 W/m2
07:09 -6.8 °C -8.2 °C 1012.8 hPa NNE 3.7 km/h 3.1 km/h 90% 1.27 mm 143.10 W/m2
07:14 -6.8 °C -8.2 °C 1012.8 hPa Calm   0.6 km/h 90% 1.27 mm 143.10 W/m2
07:19 -6.8 °C -8.3 °C 1012.8 hPa NNE 3.2 km/h 1.9 km/h 89% 1.27 mm 143.10 W/m2
07:24 -6.9 °C -8.4 °C 1012.8 hPa NE 1.9 km/h 0.3 km/h 89% 1.27 mm 143.10 W/m2
07:29 -6.9 °C -8.4 °C 1012.8 hPa West 3.7 km/h 1 km/h 89% 1.27 mm 143.10 W/m2
07:34 -6.9 °C -8.4 °C 1012.8 hPa NE 3.7 km/h 0.8 km/h 89% 1.27 mm 143.10 W/m2
07:39 -6.9 °C -8.4 °C 1012.8 hPa NE 3.2 km/h 1.1 km/h 89% 1.27 mm 143.10 W/m2
07:44 -6.9 °C -8.4 °C 1012.8 hPa NNE 5.6 km/h 1.3 km/h 89% 1.27 mm 143.10 W/m2
07:49 -6.9 °C -8.4 °C 1012.8 hPa Calm     89% 1.27 mm 143.10 W/m2
07:54 -6.9 °C -8.4 °C 1012.8 hPa NNE 3.7 km/h 2.9 km/h 89% 1.52 mm 143.10 W/m2
07:59 -6.8 °C -8.3 °C 1012.4 hPa East 5.6 km/h 1.8 km/h 89% 1.27 mm 143.10 W/m2
08:04 -6.9 °C -8.4 °C 1012.4 hPa NNE 3.7 km/h   89% 1.27 mm 143.10 W/m2
08:09 -6.9 °C -8.4 °C 1012.4 hPa NNE 3.2 km/h 0.5 km/h 89% 1.52 mm 143.10 W/m2
08:14 -6.9 °C -8.4 °C 1012.4 hPa NNE 3.7 km/h 1.1 km/h 89% 1.27 mm 143.10 W/m2
08:19 -7 °C -8.4 °C 1012.1 hPa NNE 5.6 km/h 1.8 km/h 90% 1.52 mm 143.10 W/m2
08:24 -7 °C -8.4 °C 1012.1 hPa NNE 7.4 km/h 3.7 km/h 90% 1.27 mm 143.10 W/m2
08:29 -7 °C -8.4 °C 1012.1 hPa NNE 7.4 km/h 2.9 km/h 90% 1.27 mm 143.10 W/m2
08:34 -7 °C -8.4 °C 1012.1 hPa NNE 8 km/h 2.6 km/h 90% 1.27 mm 143.10 W/m2
08:39 -7 °C -8.4 °C 1011.7 hPa ENE 3.7 km/h 0.3 km/h 90% 1.27 mm 143.10 W/m2
08:44 -6.9 °C -8.3 °C 1011.7 hPa NNE 5.6 km/h 4.5 km/h 90% 1.27 mm 143.10 W/m2
08:49 -6.9 °C -8.3 °C 1011.7 hPa ENE 1.9 km/h   90% 1.27 mm 143.10 W/m2
08:54 -7 °C -8.4 °C 1011.7 hPa NNE 5.6 km/h 1.9 km/h 90% 1.02 mm 143.10 W/m2
08:59 -7.1 °C -8.4 °C 1011.4 hPa WNW 5.6 km/h 0.5 km/h 90% 1.27 mm 143.10 W/m2
09:04 -7.1 °C -8.4 °C 1011.4 hPa NE 5.6 km/h 2.9 km/h 90% 1.52 mm 143.10 W/m2
09:09 -7 °C -8.4 °C 1011.4 hPa NE 3.7 km/h 0.3 km/h 90% 1.27 mm 143.10 W/m2
09:14 -7 °C -8.4 °C 1011.4 hPa WNW 5.6 km/h 0.6 km/h 90% 1.27 mm 143.10 W/m2
09:19 -6.9 °C -8.3 °C 1011.4 hPa North 5.6 km/h 0.3 km/h 90% 1.27 mm 143.10 W/m2
09:24 -6.8 °C -8.2 °C 1011.4 hPa ENE 1.9 km/h   90% 1.52 mm 143.10 W/m2
09:29 -6.8 °C -8.2 °C 1011.4 hPa Calm     90% 1.52 mm 143.10 W/m2
09:34 -6.7 °C -8.1 °C 1011.4 hPa ENE 1.9 km/h 0.2 km/h 90% 1.27 mm 143.10 W/m2
09:39 -6.6 °C -8 °C 1011.4 hPa NNW 5.6 km/h 1.3 km/h 90% 1.52 mm 143.10 W/m2
09:44 -6.6 °C -8.1 °C 1011.4 hPa North 5.6 km/h   89% 1.27 mm 143.10 W/m2
09:49 -6.4 °C -7.9 °C 1011.4 hPa North 3.7 km/h 1 km/h 89% 1.52 mm 143.10 W/m2
09:54 -6.3 °C -7.8 °C 1011.4 hPa WNW 1.9 km/h 1.4 km/h 89% 1.52 mm 143.10 W/m2
09:59 -6.2 °C -7.7 °C 1011.1 hPa North 5.6 km/h   89% 1.52 mm 143.10 W/m2
10:04 -6.2 °C -7.8 °C 1011.1 hPa Calm     88% 1.52 mm 143.10 W/m2
10:09 -6 °C -7.7 °C 1011.1 hPa North 3.7 km/h 0.6 km/h 88% 1.52 mm 143.10 W/m2
10:14 -5.9 °C -7.6 °C 1011.1 hPa NNW 3.7 km/h 0.5 km/h 88% 1.52 mm 143.10 W/m2
10:19 -5.9 °C -7.6 °C 1011.1 hPa North 1.6 km/h 0.6 km/h 88% 1.52 mm 143.10 W/m2
10:24 -5.8 °C -7.5 °C 1011.1 hPa NE 9.3 km/h 1.3 km/h 88% 1.52 mm 143.10 W/m2
10:29 -5.9 °C -7.7 °C 1011.1 hPa NNE 3.2 km/h   87% 1.52 mm 143.10 W/m2
10:34 -5.9 °C -7.6 °C 1010.7 hPa WSW 1.9 km/h   88% 1.52 mm 143.10 W/m2
10:39 -5.9 °C -7.6 °C 1010.7 hPa NE 5.6 km/h 0.6 km/h 88% 1.52 mm 143.10 W/m2
10:44 -6 °C -7.8 °C 1010.7 hPa ENE 3.2 km/h 2.4 km/h 87% 1.52 mm 143.10 W/m2
10:49 -6 °C -7.7 °C 1010.7 hPa Calm     88% 1.52 mm 143.10 W/m2
10:54 -5.9 °C -7.6 °C 1010.7 hPa Calm   0.5 km/h 88% 1.52 mm 143.10 W/m2
10:59 -5.9 °C -7.6 °C 1010.4 hPa NE 5.6 km/h 0.8 km/h 88% 1.27 mm 143.10 W/m2
11:04 -5.8 °C -7.4 °C 1010.4 hPa NE 5.6 km/h 3.5 km/h 88% 1.27 mm 143.10 W/m2
11:09 -5.8 °C -7.7 °C 1010.4 hPa NNE 9.3 km/h 3.5 km/h 87% 1.27 mm 143.10 W/m2
11:14 -5.9 °C -7.8 °C 1010.4 hPa NE 3.7 km/h 1.9 km/h 87% 1.27 mm 143.10 W/m2
11:19 -6 °C -7.7 °C 1010 hPa NNE 7.4 km/h 0.2 km/h 88% 1.02 mm 143.10 W/m2
11:24 -5.9 °C -7.6 °C 1010 hPa North 3.7 km/h 2.4 km/h 88% 1.02 mm 143.10 W/m2
11:29 -5.8 °C -7.5 °C 1010 hPa North 5.6 km/h 1.8 km/h 88% 1.02 mm 143.10 W/m2
11:34 -5.8 °C -7.7 °C 1009.7 hPa ENE 3.7 km/h 0.6 km/h 87% 1.02 mm 143.10 W/m2
11:39 -5.9 °C -7.6 °C 1009.7 hPa North 5.6 km/h 1.1 km/h 88% 0.76 mm 143.10 W/m2
11:44 -5.8 °C -7.5 °C 1009.7 hPa NNE 3.7 km/h 3.9 km/h 88% 0.76 mm 143.10 W/m2
11:49 -5.8 °C -7.4 °C 1009.7 hPa North 4.8 km/h 1.9 km/h 88% 0.51 mm 143.10 W/m2
11:54 -5.8 °C -7.7 °C 1009.7 hPa ENE 11.1 km/h 3.7 km/h 87% 0.51 mm 143.10 W/m2
11:59 -5.9 °C -7.8 °C 1009.4 hPa South 5.6 km/h 2.6 km/h 87% 0.51 mm 143.10 W/m2
12:04 -6 °C -7.8 °C 1009.4 hPa NE 1.9 km/h 0.3 km/h 87% 0.25 mm 143.10 W/m2
12:09 -6.1 °C -7.9 °C 1009 hPa NE 1.9 km/h   87% 0.25 mm 143.10 W/m2
12:14 -6.1 °C -7.7 °C 1009 hPa NE 3.7 km/h 1.4 km/h 88% 0.25 mm 143.10 W/m2
12:19 -6.1 °C -7.7 °C 1009 hPa NNE 1.9 km/h 0.6 km/h 88% 0.51 mm 143.10 W/m2
12:24 -6 °C -7.7 °C 1008.7 hPa NNE 1.9 km/h 0.8 km/h 88% 0.25 mm 143.10 W/m2
12:29 -5.9 °C -7.6 °C 1008.7 hPa NNE 3.7 km/h 2.4 km/h 88% 0.25 mm 143.10 W/m2
12:34 -5.8 °C -7.5 °C 1008.7 hPa NNW 1.9 km/h   88% 0.25 mm 143.10 W/m2
12:39 -5.7 °C -7.6 °C 1008.4 hPa West 5.6 km/h 0.6 km/h 87% 0.25 mm 143.10 W/m2
12:44 -5.7 °C -7.6 °C 1008.4 hPa SSW 3.7 km/h 0.6 km/h 87% 0.25 mm 143.10 W/m2
12:49 -5.7 °C -7.5 °C 1008.4 hPa East 5.6 km/h 2.3 km/h 87% 0.25 mm 143.10 W/m2
12:54 -5.7 °C -7.5 °C 1008 hPa WNW 5.6 km/h 1.4 km/h 87% 0.25 mm 143.10 W/m2
12:59 -5.6 °C -7.4 °C 1008 hPa NNE 1.9 km/h 0.6 km/h 87% 0.25 mm 143.10 W/m2
13:04 -5.6 °C -7.4 °C 1008 hPa NNE 3.2 km/h 1.9 km/h 87% 0.25 mm 143.10 W/m2
13:09 -5.4 °C -7.3 °C 1008 hPa North 1.9 km/h 1 km/h 87% 0.51 mm 143.10 W/m2
13:14 -5.4 °C -7.4 °C 1007.7 hPa NNW 3.7 km/h 1.1 km/h 86% 0.51 mm 143.10 W/m2
13:19 -5.3 °C -7.2 °C 1007.7 hPa NNE 1.9 km/h   87% 0.25 mm 143.10 W/m2
13:24 -5.3 °C -7.2 °C 1007.7 hPa North 3.7 km/h 2.4 km/h 87% 0.25 mm 143.10 W/m2
13:29 -5.3 °C -7.1 °C 1007.7 hPa NNW 5.6 km/h 1.9 km/h 87% 0.25 mm 143.10 W/m2
13:34 -5.2 °C -7.2 °C 1007.3 hPa NNE 3.7 km/h 1.1 km/h 86% 0.25 mm 143.10 W/m2
13:39 -5.2 °C -7.2 °C 1007.3 hPa NE 3.7 km/h 1.1 km/h 86% 0.25 mm 143.10 W/m2
13:44 -5.2 °C -7.2 °C 1007 hPa NE 5.6 km/h 0.3 km/h 86% 0.25 mm 143.10 W/m2
13:49 -5.3 °C -7.1 °C 1007 hPa NE 1.9 km/h   87% 0.25 mm 143.10 W/m2
13:54 -5.3 °C -7.1 °C 1007 hPa NNW 3.7 km/h   87% 0.25 mm 143.10 W/m2
13:59 -5.2 °C -7 °C 1007 hPa WNW 1.6 km/h 1 km/h 87% 0.25 mm 143.10 W/m2
14:04 -5.2 °C -7 °C 1006.7 hPa NNE 8 km/h 2.9 km/h 87% 0.25 mm 143.10 W/m2
14:09 -5.2 °C -7 °C 1006.7 hPa NNW 5.6 km/h 2.1 km/h 87% 0 mm 143.10 W/m2
14:14 -5.1 °C -6.9 °C 1006.7 hPa WNW 5.6 km/h 2.3 km/h 87% 0 mm 143.10 W/m2
14:19 -5.1 °C -6.9 °C 1006.7 hPa Calm   1 km/h 87% 0 mm 143.10 W/m2
14:24 -5.1 °C -6.9 °C 1006.7 hPa West 3.7 km/h   87% 0 mm 143.10 W/m2
14:29 -5 °C -6.8 °C 1006.7 hPa NNE 3.2 km/h 2.3 km/h 87% 0 mm 143.10 W/m2
14:34 -4.9 °C -6.8 °C 1006.3 hPa Calm     87% 0 mm 143.10 W/m2
14:39 -4.9 °C -6.8 °C 1006.3 hPa Calm     87% 0 mm 143.10 W/m2
14:44 -4.8 °C -6.7 °C 1006.3 hPa NNE 1.9 km/h 2.6 km/h 87% 0 mm 143.10 W/m2
14:49 -4.8 °C -6.6 °C 1006.3 hPa WSW 5.6 km/h 0.3 km/h 87% 0 mm 143.10 W/m2
14:54 -4.7 °C -6.4 °C 1006.3 hPa WNW 1.9 km/h 0.5 km/h 88% 0 mm 143.10 W/m2
14:59 -4.7 °C -6.3 °C 1006.3 hPa NE 3.7 km/h 0.5 km/h 88% 0.25 mm 143.10 W/m2
15:04 -4.6 °C -6.2 °C 1006.3 hPa SSW 3.7 km/h 1.9 km/h 88% 0.25 mm 143.10 W/m2
15:09 -4.6 °C -6.2 °C 1006.3 hPa NW 5.6 km/h 1.1 km/h 88% 0.25 mm 143.10 W/m2
15:14 -4.6 °C -6.4 °C 1006.3 hPa NNE 5.6 km/h 2.3 km/h 87% 0.25 mm 143.10 W/m2
15:19 -4.6 °C -6.4 °C 1006.3 hPa NE 1.9 km/h   87% 0.25 mm 143.10 W/m2
15:24 -4.6 °C -6.4 °C 1006.3 hPa NNE 3.2 km/h 0.5 km/h 87% 0.25 mm 143.10 W/m2
15:29 -4.7 °C -6.5 °C 1006.3 hPa NNE 4.8 km/h 4.2 km/h 87% 0.25 mm 143.10 W/m2
15:34 -4.7 °C -6.6 °C 1006.3 hPa NNW 1.9 km/h 1.4 km/h 87% 0.25 mm 143.10 W/m2
15:39 -4.7 °C -6.6 °C 1006.3 hPa NNE 1.9 km/h 0.3 km/h 87% 0.25 mm 143.10 W/m2
15:44 -4.7 °C -6.4 °C 1006.3 hPa NW 11.1 km/h 2.1 km/h 88% 0.51 mm 143.10 W/m2
15:49 -4.7 °C -6.4 °C 1006.7 hPa NE 5.6 km/h 1.3 km/h 88% 0.51 mm 143.10 W/m2
15:54 -4.8 °C -6.4 °C 1006.7 hPa NW 7.4 km/h 4 km/h 88% 0.51 mm 143.10 W/m2
15:59 -4.8 °C -6.5 °C 1006.7 hPa NNE 5.6 km/h   88% 0.25 mm 143.10 W/m2
16:04 -4.8 °C -6.5 °C 1006.7 hPa SW 3.2 km/h 1.1 km/h 88% 0.25 mm 143.10 W/m2
16:09 -4.8 °C -6.5 °C 1006.7 hPa WNW 3.7 km/h 1.8 km/h 88% 0.25 mm 143.10 W/m2
16:14 -4.9 °C -6.4 °C 1006.7 hPa NE 3.7 km/h 0.3 km/h 89% 0.25 mm 143.10 W/m2
16:19 -4.9 °C -6.4 °C 1006.7 hPa NNE 3.7 km/h 1.4 km/h 89% 0.25 mm 143.10 W/m2
16:24 -4.8 °C -6.4 °C 1006.7 hPa West 1.6 km/h 0.2 km/h 89% 0.51 mm 143.10 W/m2
16:29 -4.8 °C -6.4 °C 1006.7 hPa Calm     89% 0.51 mm 143.10 W/m2
16:34 -4.8 °C -6.3 °C 1007 hPa WNW 5.6 km/h 3.2 km/h 89% 0.51 mm 143.10 W/m2
16:39 -4.8 °C -6.3 °C 1007 hPa NNE 3.7 km/h 1.9 km/h 89% 0.51 mm 143.10 W/m2
16:44 -4.8 °C -6.3 °C 1007 hPa NE 3.7 km/h   89% 0.25 mm 143.10 W/m2
16:49 -4.8 °C -6.3 °C 1007 hPa WNW 3.2 km/h 1 km/h 89% 0.25 mm 143.10 W/m2
16:54 -4.8 °C -6.3 °C 1007.3 hPa West 5.6 km/h 0.5 km/h 89% 0.25 mm 143.10 W/m2
16:59 -4.8 °C -6.4 °C 1007.3 hPa West 4.8 km/h 0.2 km/h 89% 0.51 mm 143.10 W/m2
17:04 -4.8 °C -6.3 °C 1007.3 hPa Calm     89% 0.51 mm 143.10 W/m2
17:09 -4.8 °C -6.4 °C 1007.3 hPa WSW 5.6 km/h 3.5 km/h 89% 0.51 mm 143.10 W/m2
17:14 -4.8 °C -6.4 °C 1007.3 hPa NNE 7.4 km/h 1 km/h 89% 0.51 mm 143.10 W/m2
17:19 -4.8 °C -6.4 °C 1007.3 hPa North 5.6 km/h 2.6 km/h 89% 0.51 mm 143.10 W/m2
17:24 -4.8 °C -6.2 °C 1007.3 hPa NW 1.9 km/h 0.2 km/h 90% 0.25 mm 143.10 W/m2
17:29 -4.8 °C -6.2 °C 1007.7 hPa NE 5.6 km/h   90% 0.25 mm 143.10 W/m2
17:34 -4.8 °C -6.2 °C 1007.3 hPa NNE 3.7 km/h 1.4 km/h 90% 0.25 mm 143.10 W/m2
17:39 -4.9 °C -6.3 °C 1007.7 hPa ENE 11.1 km/h 5.6 km/h 90% 0.51 mm 143.10 W/m2
17:44 -5.2 °C -6.6 °C 1007.7 hPa SW 11.1 km/h 4 km/h 90% 0.51 mm 143.10 W/m2
17:49 -5.4 °C -6.9 °C 1007.7 hPa ENE 3.7 km/h 1.1 km/h 89% 0.51 mm 143.10 W/m2
17:54 -5.6 °C -7.1 °C 1007.7 hPa WNW 5.6 km/h 1.1 km/h 89% 0.51 mm 143.10 W/m2
17:59 -5.7 °C -7.2 °C 1007.7 hPa North 14.8 km/h 3.5 km/h 89% 0.51 mm 143.10 W/m2
18:04 -5.8 °C -7.3 °C 1008 hPa ENE 5.6 km/h 1 km/h 89% 0.51 mm 143.10 W/m2
18:09 -5.9 °C -7.4 °C 1008 hPa SSW 9.3 km/h 4.2 km/h 89% 0.51 mm 143.10 W/m2
18:14 -6 °C -7.4 °C 1008 hPa NNE 1.6 km/h 1.6 km/h 90% 0.51 mm 143.10 W/m2
18:19 -6.1 °C -7.5 °C 1008 hPa NNE 14.8 km/h 6 km/h 90% 0.51 mm 143.10 W/m2
18:24 -6.2 °C -7.6 °C 1008 hPa NE 5.6 km/h 3.7 km/h 90% 0.51 mm 143.10 W/m2
18:29 -6.2 °C -7.6 °C 1008 hPa NE 6.4 km/h 1.9 km/h 90% 0.51 mm 143.10 W/m2
18:34 -6.2 °C -7.6 °C 1008.4 hPa NNE 9.3 km/h 4.3 km/h 90% 0.76 mm 143.10 W/m2
18:39 -6.3 °C -7.8 °C 1008.4 hPa SSW 5.6 km/h 1.9 km/h 89% 0.51 mm 143.10 W/m2
18:44 -6.4 °C -7.9 °C 1008.4 hPa West 5.6 km/h 3.9 km/h 89% 0.51 mm 143.10 W/m2
18:49 -6.4 °C -7.9 °C 1008.4 hPa SW 5.6 km/h 2.1 km/h 89% 0.51 mm 143.10 W/m2
18:54 -6.6 °C -8.1 °C 1008.4 hPa WNW 5.6 km/h 2.3 km/h 89% 0.51 mm 143.10 W/m2
18:59 -6.6 °C -8.1 °C 1008.4 hPa SE 9.3 km/h 3.5 km/h 89% 0.25 mm 143.10 W/m2
19:04 -6.7 °C -8.2 °C 1008.7 hPa East 14.8 km/h 5.1 km/h 89% 0.25 mm 143.10 W/m2
19:09 -6.7 °C -8.2 °C 1008.7 hPa NNE 6.4 km/h 4.2 km/h 89% 0.25 mm 143.10 W/m2
19:14 -6.8 °C -8.3 °C 1008.7 hPa NE 5.6 km/h 2.4 km/h 89% 0.25 mm 143.10 W/m2
19:19 -6.8 °C -8.3 °C 1008.7 hPa SE 9.3 km/h 1.9 km/h 89% 0.51 mm 143.10 W/m2
19:24 -6.8 °C -8.3 °C 1008.7 hPa NE 11.1 km/h 3.5 km/h 89% 0.51 mm 143.10 W/m2
19:29 -6.8 °C -8.3 °C 1008.7 hPa NNE 3.7 km/h 2.4 km/h 89% 0.51 mm 143.10 W/m2
19:34 -6.8 °C -8.3 °C 1008.7 hPa NNE 11.1 km/h 3.2 km/h 89% 0.25 mm 143.10 W/m2
19:39 -6.9 °C -8.4 °C 1008.7 hPa North 14.8 km/h 6.1 km/h 89% 0.25 mm 143.10 W/m2
19:44 -6.9 °C -8.6 °C 1008.7 hPa NE 7.4 km/h 4.3 km/h 88% 0.25 mm 143.10 W/m2
19:49 -6.9 °C -8.6 °C 1008.7 hPa SW 5.6 km/h 1.1 km/h 88% 0.25 mm 143.10 W/m2
19:54 -6.9 °C -8.6 °C 1008.7 hPa West 14.8 km/h 4.7 km/h 88% 0.25 mm 143.10 W/m2
19:59 -7 °C -8.7 °C 1008.7 hPa NNE 9.3 km/h 0.8 km/h 88% 0.25 mm 143.10 W/m2
20:04 -7 °C -8.7 °C 1009 hPa NE 9.3 km/h 2.6 km/h 88% 0.25 mm 143.10 W/m2
20:09 -7.1 °C -8.7 °C 1009 hPa West 3.7 km/h 0.2 km/h 88% 0.25 mm 143.10 W/m2
20:14 -7 °C -8.7 °C 1009 hPa North 11.1 km/h 3.2 km/h 88% 0.25 mm 143.10 W/m2
20:19 -7.1 °C -8.7 °C 1009 hPa NNE 3.7 km/h 0.2 km/h 88% 0 mm 143.10 W/m2
20:24 -7.1 °C -8.7 °C 1009 hPa NW 5.6 km/h 5 km/h 88% 0 mm 143.10 W/m2
20:29 -7.1 °C -8.7 °C 1009 hPa NNW 5.6 km/h 2.3 km/h 88% 0 mm 143.10 W/m2
20:34 -7.1 °C -8.7 °C 1009 hPa SW 11.1 km/h 6 km/h 88% 0 mm 143.10 W/m2
20:39 -7.1 °C -8.8 °C 1009 hPa WNW 14.8 km/h 5.5 km/h 87% 0 mm 143.10 W/m2
20:44 -7.1 °C -8.8 °C 1009 hPa West 5.6 km/h 4 km/h 87% 0 mm 143.10 W/m2
20:49 -7.1 °C -8.8 °C 1009 hPa NE 7.4 km/h 4.7 km/h 87% 0 mm 143.10 W/m2
20:54 -7.1 °C -8.9 °C 1009 hPa West 11.1 km/h 2.6 km/h 87% 0 mm 143.10 W/m2
20:59 -7.1 °C -8.9 °C 1009.4 hPa NE 7.4 km/h 1.4 km/h 87% 0 mm 143.10 W/m2
21:04 -7.1 °C -8.9 °C 1009.4 hPa WNW 11.1 km/h 4.3 km/h 87% 0 mm 143.10 W/m2
21:09 -7.1 °C -8.9 °C 1009.7 hPa NNE 9.7 km/h 3.1 km/h 87% 0 mm 143.10 W/m2
21:14 -7.1 °C -8.9 °C 1009.7 hPa NE 5.6 km/h 4 km/h 87% 0 mm 143.10 W/m2
21:19 -7.1 °C -8.9 °C 1009.7 hPa NE 5.6 km/h 4.2 km/h 87% 0 mm 143.10 W/m2
21:24 -7.1 °C -8.9 °C 1009.7 hPa West 5.6 km/h 6 km/h 87% 0 mm 143.10 W/m2
21:29 -7.1 °C -8.9 °C 1009.7 hPa SW 5.6 km/h 0.2 km/h 87% 0 mm 143.10 W/m2
21:34 -7.1 °C -8.9 °C 1009.7 hPa NE 7.4 km/h 1.6 km/h 87% 0 mm 143.10 W/m2
21:39 -7.1 °C -8.9 °C 1009.7 hPa West 13 km/h 7.4 km/h 87% 0 mm 143.10 W/m2
21:44 -7.2 °C -8.9 °C 1010 hPa North 7.4 km/h 2.6 km/h 87% 0 mm 143.10 W/m2
21:49 -7.2 °C -8.9 °C 1010 hPa WSW 7.4 km/h 3.1 km/h 87% 0 mm 143.10 W/m2
21:54 -7.2 °C -8.9 °C 1010 hPa SW 7.4 km/h 3.9 km/h 87% 0 mm 143.10 W/m2
21:59 -7.2 °C -8.9 °C 1010 hPa SE 5.6 km/h 2.9 km/h 87% 0 mm 143.10 W/m2
22:04 -7.2 °C -9 °C 1010 hPa WSW 5.6 km/h 2.4 km/h 87% 0 mm 143.10 W/m2
22:09 -7.2 °C -9 °C 1010 hPa SW 3.7 km/h   87% 0 mm 143.10 W/m2
22:14 -7.2 °C -9 °C 1010 hPa West 7.4 km/h 1.8 km/h 87% 0 mm 143.10 W/m2
22:19 -7.2 °C -9 °C 1010 hPa WNW 6.4 km/h 4.3 km/h 87% 0 mm 143.10 W/m2
22:24 -7.2 °C -9 °C 1010 hPa NW 9.3 km/h 3.2 km/h 87% 0 mm 143.10 W/m2
22:29 -7.2 °C -9 °C 1010 hPa NE 5.6 km/h 1.8 km/h 87% 0 mm 143.10 W/m2
22:34 -7.2 °C -9 °C 1010 hPa North 9.7 km/h 5 km/h 87% 0 mm 143.10 W/m2
22:39 -7.2 °C -9 °C 1010 hPa NNE 6.4 km/h 3.9 km/h 87% 0 mm 143.10 W/m2
22:44 -7.3 °C -9.1 °C 1010 hPa WNW 3.7 km/h 1 km/h 87% 0 mm 143.10 W/m2
22:49 -7.3 °C -9.1 °C 1010.4 hPa West 9.7 km/h 1.4 km/h 87% 0 mm 143.10 W/m2
22:54 -7.3 °C -8.9 °C 1010.4 hPa East 5.6 km/h 1.1 km/h 88% 0 mm 143.10 W/m2
22:59 -7.2 °C -8.9 °C 1010.4 hPa NNE 5.6 km/h 0.6 km/h 88% 0 mm 143.10 W/m2
23:04 -7.2 °C -8.9 °C 1010.4 hPa WNW 6.4 km/h 1.8 km/h 88% 0 mm 143.10 W/m2
23:09 -7.2 °C -8.9 °C 1010 hPa SW 13 km/h 5.1 km/h 88% 0 mm 143.10 W/m2
23:14 -7.2 °C -8.9 °C 1010.4 hPa NE 7.4 km/h 2.3 km/h 88% 0 mm 143.10 W/m2
23:19 -7.3 °C -8.9 °C 1010.4 hPa WNW 4.8 km/h 2.6 km/h 88% 0 mm 143.10 W/m2
23:24 -7.2 °C -9 °C 1010.4 hPa SW 7.4 km/h 4.3 km/h 87% 0 mm 143.10 W/m2
23:29 -7.3 °C -9.1 °C 1010.4 hPa WSW 5.6 km/h 0.8 km/h 87% 0 mm 143.10 W/m2
23:34 -7.3 °C -9.1 °C 1010.4 hPa NW 1.9 km/h 2.1 km/h 87% 0 mm 143.10 W/m2
23:39 -7.3 °C -9.1 °C 1010.4 hPa WNW 7.4 km/h 2.4 km/h 87% 0 mm 143.10 W/m2
23:44 -7.4 °C -9.2 °C 1010.4 hPa NNE 5.6 km/h   87% 0 mm 143.10 W/m2
23:49 -7.4 °C -9.2 °C 1010.4 hPa NNW 8 km/h 2.4 km/h 87% 0 mm 143.10 W/m2
23:54 -7.4 °C -9.2 °C 1010.4 hPa NE 1.9 km/h 0.5 km/h 87% 0 mm 143.10 W/m2
23:59 -7.5 °C -9.3 °C 1010.4 hPa West 5.6 km/h 0.5 km/h 87% 0 mm 143.10 W/m2
Winter, Wisconsin USA
Compliments of Weather Underground - 4 mb